TAM9985 SBGL-SGAS

Flight info

Callsign TAM9985
Flight time 2h 4m
Altitude 34000
Route SIDUR DCT TAU DCT VCP DCT ASETA UL301 DEVOS DEVOS
Aircraft A320/M-SDE3FGHIRWY/LB1

Departure

Time 2026-04-24 00:35
Airport Rio Galeão – Tom Jobim International Airport (SBGL)

Arrival

Time 2026-04-24 02:39
Airport Silvio Pettirossi International Airport (SGAS)
Time Latitude Longitude Altitude Speed Heading
2026-04-24 00:02 -22.81513 -43.24785 22 ft 0 kts 38°
2026-04-24 00:21 -22.81518 -43.24789 22 ft 4 kts 40°
2026-04-24 00:21 -22.81537 -43.24810 24 ft 4 kts 51°
2026-04-24 00:21 -22.81554 -43.24832 21 ft 4 kts 40°
2026-04-24 00:21 -22.81567 -43.24840 24 ft 1 kts 330°
2026-04-24 00:26 -22.81530 -43.24873 23 ft 9 kts 311°
2026-04-24 00:26 -22.81487 -43.24947 24 ft 15 kts 300°
2026-04-24 00:26 -22.81437 -43.25039 22 ft 13 kts 301°
2026-04-24 00:27 -22.81359 -43.25151 21 ft 23 kts 311°
2026-04-24 00:27 -22.81261 -43.25290 22 ft 24 kts 310°
2026-04-24 00:27 -22.81119 -43.25378 22 ft 24 kts 349°
2026-04-24 00:27 -22.80963 -43.25411 22 ft 22 kts 315°
2026-04-24 00:28 -22.80896 -43.25542 28 ft 19 kts 303°
2026-04-24 00:28 -22.80806 -43.25569 24 ft 8 kts 40°
2026-04-24 00:28 -22.80752 -43.25529 22 ft 11 kts 35°
2026-04-24 00:28 -22.80693 -43.25484 24 ft 12 kts 34°
2026-04-24 00:29 -22.80628 -43.25436 29 ft 1 kts 34°
2026-04-24 00:29 -22.80613 -43.25424 29 ft 8 kts 34°
2026-04-24 00:29 -22.80541 -43.25381 29 ft 15 kts
2026-04-24 00:29 -22.80451 -43.25418 29 ft 13 kts 329°
2026-04-24 00:30 -22.80382 -43.25463 29 ft 10 kts 328°
2026-04-24 00:30 -22.80337 -43.25494 27 ft 0 kts 326°
2026-04-24 00:30 -22.80336 -43.25495 27 ft 1 kts 326°
2026-04-24 00:30 -22.80335 -43.25495 27 ft 0 kts 326°
2026-04-24 00:32 -22.80334 -43.25496 27 ft 1 kts 326°
2026-04-24 00:32 -22.80329 -43.25500 27 ft 0 kts 325°
2026-04-24 00:33 -22.80322 -43.25504 27 ft 5 kts 327°
2026-04-24 00:34 -22.80217 -43.25490 28 ft 20 kts 32°
2026-04-24 00:34 -22.80134 -43.25305 27 ft 54 kts 73°
2026-04-24 00:34 -22.79956 -43.24620 32 ft 131 kts 74°
2026-04-24 00:34 -22.79659 -43.23471 158 ft 176 kts 75°
2026-04-24 00:35 -22.79316 -43.22185 822 ft 182 kts 75°
2026-04-24 00:35 -22.79004 -43.20850 1577 ft 183 kts 77°
2026-04-24 00:35 -22.78706 -43.19451 1895 ft 202 kts 78°
2026-04-24 00:35 -22.78376 -43.17872 2173 ft 227 kts 77°
2026-04-24 00:36 -22.78008 -43.16121 2603 ft 248 kts 77°
2026-04-24 00:36 -22.77602 -43.14277 3339 ft 255 kts 73°
2026-04-24 00:36 -22.76758 -43.12563 4102 ft 262 kts 50°
2026-04-24 00:36 -22.75331 -43.11320 4919 ft 269 kts 27°
2026-04-24 00:37 -22.73515 -43.10788 5700 ft 274 kts
2026-04-24 00:37 -22.71632 -43.11087 6505 ft 278 kts 339°
2026-04-24 00:37 -22.69979 -43.12191 7265 ft 282 kts 322°
2026-04-24 00:37 -22.68435 -43.13522 7979 ft 286 kts 322°
2026-04-24 00:38 -22.66871 -43.14887 8698 ft 291 kts 323°
2026-04-24 00:38 -22.65281 -43.16277 9388 ft 296 kts 323°
2026-04-24 00:38 -22.63692 -43.17730 10071 ft 303 kts 315°
2026-04-24 00:38 -22.62511 -43.19652 10349 ft 326 kts 291°
2026-04-24 00:39 -22.62170 -43.22177 10490 ft 350 kts 265°
2026-04-24 00:39 -22.62506 -43.24829 10664 ft 368 kts 261°
2026-04-24 00:39 -22.62910 -43.27634 11160 ft 375 kts 261°
2026-04-24 00:39 -22.63311 -43.30401 11744 ft 379 kts 261°
2026-04-24 00:40 -22.63715 -43.33233 12349 ft 382 kts 261°
2026-04-24 00:40 -22.64110 -43.36079 12959 ft 384 kts 261°
2026-04-24 00:40 -22.64500 -43.38961 13577 ft 387 kts 261°
2026-04-24 00:40 -22.64884 -43.41853 14158 ft 390 kts 261°
2026-04-24 00:41 -22.65271 -43.44764 14699 ft 392 kts 261°
2026-04-24 00:41 -22.65661 -43.47697 15225 ft 395 kts 261°
2026-04-24 00:41 -22.66057 -43.50647 15735 ft 397 kts 261°
2026-04-24 00:41 -22.66456 -43.53611 16234 ft 399 kts 261°
2026-04-24 00:42 -22.66858 -43.56591 16725 ft 402 kts 261°
2026-04-24 00:42 -22.67263 -43.59596 17210 ft 404 kts 261°
2026-04-24 00:42 -22.67667 -43.62617 17688 ft 406 kts 261°
2026-04-24 00:42 -22.68071 -43.65656 18145 ft 409 kts 261°
2026-04-24 00:43 -22.68481 -43.68713 18572 ft 411 kts 260°
2026-04-24 00:43 -22.68971 -43.71766 18976 ft 412 kts 258°
2026-04-24 00:43 -22.69552 -43.74807 19402 ft 413 kts 257°
2026-04-24 00:43 -22.70186 -43.77849 19834 ft 413 kts 256°
2026-04-24 00:44 -22.70826 -43.80841 20250 ft 414 kts 256°
2026-04-24 00:44 -22.71468 -43.83880 20679 ft 414 kts 256°
2026-04-24 00:44 -22.72095 -43.86930 21093 ft 415 kts 257°
2026-04-24 00:44 -22.72706 -43.89978 21507 ft 415 kts 257°
2026-04-24 00:45 -22.73310 -43.93043 21911 ft 416 kts 257°
2026-04-24 00:45 -22.73919 -43.96149 22319 ft 417 kts 257°
2026-04-24 00:45 -22.74513 -43.99197 22713 ft 418 kts 257°
2026-04-24 00:45 -22.75111 -44.02275 23098 ft 419 kts 257°
2026-04-24 00:46 -22.75712 -44.05364 23483 ft 420 kts 257°
2026-04-24 00:46 -22.76319 -44.08463 23838 ft 421 kts 257°
2026-04-24 00:46 -22.76928 -44.11563 24141 ft 421 kts 257°
2026-04-24 00:46 -22.77538 -44.14668 24440 ft 422 kts 257°
2026-04-24 00:47 -22.78149 -44.17788 24727 ft 423 kts 257°
2026-04-24 00:47 -22.78758 -44.20905 25018 ft 424 kts 257°
2026-04-24 00:47 -22.79368 -44.24032 25303 ft 425 kts 257°
2026-04-24 00:47 -22.79980 -44.27168 25580 ft 425 kts 257°
2026-04-24 00:48 -22.80589 -44.30304 25889 ft 426 kts 257°
2026-04-24 00:48 -22.81196 -44.33441 26199 ft 426 kts 257°
2026-04-24 00:48 -22.81805 -44.36596 26489 ft 427 kts 257°
2026-04-24 00:48 -22.82413 -44.39744 26768 ft 428 kts 257°
2026-04-24 00:49 -22.83026 -44.42910 27033 ft 429 kts 257°
2026-04-24 00:49 -22.83636 -44.46083 27311 ft 430 kts 257°
2026-04-24 00:49 -22.84243 -44.49260 27564 ft 430 kts 258°
2026-04-24 00:49 -22.84848 -44.52437 27815 ft 432 kts 258°
2026-04-24 00:50 -22.85456 -44.55632 28073 ft 433 kts 257°
2026-04-24 00:50 -22.86067 -44.58830 28327 ft 434 kts 257°
2026-04-24 00:50 -22.86685 -44.62030 28573 ft 435 kts 257°
2026-04-24 00:50 -22.87307 -44.65244 28811 ft 436 kts 257°
2026-04-24 00:51 -22.87929 -44.68467 29058 ft 437 kts 257°
2026-04-24 00:51 -22.88548 -44.71688 29322 ft 437 kts 257°
2026-04-24 00:51 -22.89165 -44.74914 29607 ft 437 kts 257°
2026-04-24 00:51 -22.89778 -44.78135 29974 ft 435 kts 258°
2026-04-24 00:52 -22.90390 -44.81343 30333 ft 433 kts 257°
2026-04-24 00:52 -22.91005 -44.84530 30614 ft 432 kts 257°
2026-04-24 00:52 -22.91620 -44.87713 30876 ft 431 kts 257°
2026-04-24 00:52 -22.92233 -44.90899 31131 ft 430 kts 257°
2026-04-24 00:53 -22.92840 -44.94075 31382 ft 430 kts 257°
2026-04-24 00:53 -22.93437 -44.97215 31642 ft 430 kts 257°
2026-04-24 00:53 -22.94045 -45.00431 31913 ft 429 kts 257°
2026-04-24 00:53 -22.94637 -45.03559 32178 ft 429 kts 257°
2026-04-24 00:54 -22.95236 -45.06727 32450 ft 428 kts 257°
2026-04-24 00:54 -22.95841 -45.09934 32714 ft 428 kts 257°
2026-04-24 00:54 -22.96438 -45.13095 32975 ft 428 kts 257°
2026-04-24 00:54 -22.97032 -45.16252 33233 ft 427 kts 257°
2026-04-24 00:55 -22.97618 -45.19372 33489 ft 427 kts 257°
2026-04-24 00:55 -22.98209 -45.22521 33772 ft 426 kts 257°
2026-04-24 00:55 -22.98801 -45.25674 34038 ft 425 kts 257°
2026-04-24 00:55 -22.99392 -45.28813 34174 ft 425 kts 257°
2026-04-24 00:56 -23.00577 -45.35107 34196 ft 425 kts 257°
2026-04-24 00:56 -23.01755 -45.41404 34193 ft 425 kts 257°
2026-04-24 00:57 -23.02926 -45.47696 34195 ft 425 kts 257°
2026-04-24 00:57 -23.03559 -45.54065 34192 ft 428 kts 269°
2026-04-24 00:58 -23.03506 -45.57301 34189 ft 428 kts 268°
2026-04-24 00:58 -23.03425 -45.63837 34194 ft 438 kts 268°
2026-04-24 00:59 -23.03345 -45.70497 34195 ft 443 kts 268°
2026-04-24 00:59 -23.03274 -45.76061 34196 ft 443 kts 269°
2026-04-24 01:00 -23.03184 -45.82761 34198 ft 444 kts 269°
2026-04-24 01:00 -23.03097 -45.89469 34204 ft 444 kts 268°
2026-04-24 01:01 -23.03001 -45.96180 34207 ft 444 kts 269°
2026-04-24 01:01 -23.02902 -46.02893 34208 ft 444 kts 269°
2026-04-24 01:02 -23.02802 -46.09600 34210 ft 444 kts 269°
2026-04-24 01:02 -23.02678 -46.17390 34210 ft 444 kts 269°
2026-04-24 01:03 -23.02583 -46.22962 34213 ft 444 kts 269°
2026-04-24 01:03 -23.02472 -46.29655 34209 ft 443 kts 269°
2026-04-24 01:04 -23.02368 -46.36344 34206 ft 443 kts 269°
2026-04-24 01:04 -23.02256 -46.43030 34192 ft 443 kts 269°
2026-04-24 01:05 -23.02134 -46.49716 34189 ft 443 kts 269°
2026-04-24 01:05 -23.02008 -46.56399 34187 ft 443 kts 269°
2026-04-24 01:06 -23.01884 -46.63094 34187 ft 443 kts 269°
2026-04-24 01:06 -23.01761 -46.69785 34176 ft 443 kts 269°
2026-04-24 01:07 -23.01635 -46.76476 34174 ft 443 kts 269°
2026-04-24 01:07 -23.01503 -46.83159 34175 ft 443 kts 269°
2026-04-24 01:08 -23.01375 -46.89842 34168 ft 443 kts 269°
2026-04-24 01:08 -23.01235 -46.96530 34167 ft 443 kts 269°
2026-04-24 01:09 -23.01092 -47.03165 34174 ft 443 kts 270°
2026-04-24 01:09 -23.00948 -47.09845 34167 ft 443 kts 269°
2026-04-24 01:10 -23.01864 -47.16395 34160 ft 440 kts 252°
2026-04-24 01:10 -23.03713 -47.22720 34159 ft 440 kts 252°
2026-04-24 01:11 -23.05557 -47.29064 34161 ft 440 kts 252°
2026-04-24 01:11 -23.07386 -47.35413 34158 ft 440 kts 252°
2026-04-24 01:12 -23.09214 -47.41767 34159 ft 440 kts 252°
2026-04-24 01:12 -23.11050 -47.48118 34157 ft 440 kts 252°
2026-04-24 01:13 -23.12872 -47.54461 34157 ft 441 kts 252°
2026-04-24 01:13 -23.14697 -47.60818 34162 ft 441 kts 252°
2026-04-24 01:14 -23.16519 -47.67184 34163 ft 440 kts 253°
2026-04-24 01:14 -23.18328 -47.73533 34166 ft 440 kts 253°
2026-04-24 01:15 -23.20132 -47.79848 34158 ft 440 kts 253°
2026-04-24 01:15 -23.21954 -47.86227 34157 ft 439 kts 253°
2026-04-24 01:16 -23.23764 -47.92566 34159 ft 439 kts 253°
2026-04-24 01:16 -23.25559 -47.98885 34156 ft 439 kts 253°
2026-04-24 01:17 -23.27355 -48.05228 34158 ft 439 kts 253°
2026-04-24 01:17 -23.28893 -48.11653 34160 ft 439 kts 261°
2026-04-24 01:18 -23.29834 -48.18236 34163 ft 440 kts 261°
2026-04-24 01:18 -23.30784 -48.24805 34172 ft 440 kts 261°
2026-04-24 01:19 -23.31753 -48.31399 34177 ft 440 kts 260°
2026-04-24 01:19 -23.32725 -48.37968 34180 ft 440 kts 261°
2026-04-24 01:20 -23.34073 -48.44457 34179 ft 440 kts 253°
2026-04-24 01:20 -23.35852 -48.50828 34180 ft 440 kts 253°
2026-04-24 01:21 -23.37630 -48.57204 34175 ft 440 kts 253°
2026-04-24 01:21 -23.39390 -48.63542 34176 ft 440 kts 253°
2026-04-24 01:22 -23.41156 -48.69929 34177 ft 440 kts 253°
2026-04-24 01:22 -23.42919 -48.76306 34176 ft 440 kts 253°
2026-04-24 01:23 -23.44683 -48.82678 34168 ft 440 kts 253°
2026-04-24 01:23 -23.46446 -48.89059 34171 ft 440 kts 253°
2026-04-24 01:24 -23.48201 -48.95447 34172 ft 440 kts 254°
2026-04-24 01:24 -23.49946 -49.01828 34169 ft 440 kts 254°
2026-04-24 01:25 -23.51699 -49.08213 34179 ft 440 kts 254°
2026-04-24 01:25 -23.53451 -49.14609 34174 ft 440 kts 254°
2026-04-24 01:26 -23.55207 -49.20998 34170 ft 440 kts 254°
2026-04-24 01:26 -23.56957 -49.27389 34170 ft 440 kts 254°
2026-04-24 01:27 -23.58688 -49.33774 34172 ft 439 kts 254°
2026-04-24 01:27 -23.60408 -49.40130 34163 ft 439 kts 254°
2026-04-24 01:28 -23.62146 -49.46513 34159 ft 439 kts 254°
2026-04-24 01:28 -23.63882 -49.52898 34156 ft 439 kts 254°
2026-04-24 01:29 -23.65606 -49.59291 34155 ft 439 kts 254°
2026-04-24 01:29 -23.67321 -49.65682 34155 ft 439 kts 254°
2026-04-24 01:30 -23.69035 -49.72075 34149 ft 439 kts 254°
2026-04-24 01:30 -23.70765 -49.78463 34153 ft 439 kts 254°
2026-04-24 01:31 -23.72489 -49.84844 34151 ft 439 kts 254°
2026-04-24 01:31 -23.74198 -49.91243 34150 ft 439 kts 254°
2026-04-24 01:32 -23.75896 -49.97635 34148 ft 439 kts 254°
2026-04-24 01:32 -23.77599 -50.04041 34148 ft 439 kts 254°
2026-04-24 01:33 -23.79289 -50.10409 34144 ft 439 kts 254°
2026-04-24 01:33 -23.80999 -50.16872 34147 ft 440 kts 254°
2026-04-24 01:34 -23.82687 -50.23240 34155 ft 440 kts 254°
2026-04-24 01:34 -23.84382 -50.29662 34156 ft 440 kts 254°
2026-04-24 01:35 -23.86069 -50.36083 34158 ft 440 kts 254°
2026-04-24 01:35 -23.87764 -50.42515 34160 ft 440 kts 255°
2026-04-24 01:36 -23.89451 -50.48933 34154 ft 440 kts 255°
2026-04-24 01:36 -23.91131 -50.55358 34154 ft 440 kts 255°
2026-04-24 01:37 -23.92804 -50.61783 34154 ft 439 kts 255°
2026-04-24 01:37 -23.94475 -50.68211 34152 ft 439 kts 255°
2026-04-24 01:38 -23.96144 -50.74645 34155 ft 439 kts 255°
2026-04-24 01:38 -23.97799 -50.81066 34155 ft 439 kts 255°
2026-04-24 01:39 -23.99463 -50.87501 34151 ft 440 kts 255°
2026-04-24 01:39 -24.01130 -50.93930 34150 ft 440 kts 255°
2026-04-24 01:40 -24.02791 -51.00370 34148 ft 439 kts 255°
2026-04-24 01:40 -24.04440 -51.06801 34140 ft 439 kts 255°
2026-04-24 01:41 -24.06084 -51.13226 34148 ft 439 kts 255°
2026-04-24 01:41 -24.07731 -51.19656 34139 ft 439 kts 255°
2026-04-24 01:42 -24.09364 -51.26043 34112 ft 439 kts 255°
2026-04-24 01:42 -24.11008 -51.32487 34108 ft 440 kts 255°
2026-04-24 01:43 -24.12646 -51.38939 34107 ft 440 kts 255°
2026-04-24 01:43 -24.14282 -51.45415 34099 ft 441 kts 255°
2026-04-24 01:44 -24.15644 -51.50791 34114 ft 441 kts 255°
2026-04-24 01:44 -24.17282 -51.57265 34106 ft 441 kts 255°
2026-04-24 01:45 -24.18910 -51.63734 34107 ft 441 kts 255°
2026-04-24 01:45 -24.20540 -51.70201 34109 ft 441 kts 255°
2026-04-24 01:46 -24.22163 -51.76672 34100 ft 440 kts 256°
2026-04-24 01:46 -24.23782 -51.83135 34095 ft 440 kts 255°
2026-04-24 01:47 -24.25402 -51.89606 34101 ft 440 kts 255°
2026-04-24 01:47 -24.27014 -51.96074 34097 ft 440 kts 256°
2026-04-24 01:48 -24.28623 -52.02548 34097 ft 440 kts 256°
2026-04-24 01:48 -24.30226 -52.09019 34100 ft 440 kts 256°
2026-04-24 01:49 -24.31819 -52.15486 34098 ft 440 kts 256°
2026-04-24 01:49 -24.33399 -52.21965 34101 ft 440 kts 256°
2026-04-24 01:50 -24.34989 -52.28437 34107 ft 439 kts 256°
2026-04-24 01:50 -24.36586 -52.34908 34106 ft 439 kts 256°
2026-04-24 01:51 -24.38178 -52.41379 34100 ft 439 kts 256°
2026-04-24 01:51 -24.39767 -52.47840 34097 ft 439 kts 256°
2026-04-24 01:52 -24.41343 -52.54288 34101 ft 438 kts 256°
2026-04-24 01:52 -24.42906 -52.60712 34092 ft 438 kts 256°
2026-04-24 01:53 -24.44473 -52.67165 34091 ft 438 kts 256°
2026-04-24 01:53 -24.46030 -52.73628 34089 ft 438 kts 256°
2026-04-24 01:54 -24.47497 -52.80107 34078 ft 437 kts 257°
2026-04-24 01:54 -24.48911 -52.86597 34079 ft 437 kts 257°
2026-04-24 01:55 -24.50333 -52.93080 34080 ft 437 kts 257°
2026-04-24 01:55 -24.51771 -52.99585 34077 ft 437 kts 257°
2026-04-24 01:56 -24.53208 -53.06066 34085 ft 437 kts 257°
2026-04-24 01:56 -24.54645 -53.12564 34081 ft 437 kts 257°
2026-04-24 01:57 -24.56078 -53.19045 34088 ft 436 kts 257°
2026-04-24 01:57 -24.57508 -53.25514 34082 ft 436 kts 257°
2026-04-24 01:58 -24.58923 -53.31985 34084 ft 435 kts 257°
2026-04-24 01:58 -24.60330 -53.38462 34075 ft 435 kts 257°
2026-04-24 01:59 -24.61729 -53.44877 34068 ft 435 kts 257°
2026-04-24 01:59 -24.63155 -53.51378 34071 ft 435 kts 257°
2026-04-24 02:00 -24.64579 -53.57793 34071 ft 435 kts 257°
2026-04-24 02:00 -24.65989 -53.64256 34075 ft 435 kts 257°
2026-04-24 02:01 -24.67398 -53.70780 34075 ft 435 kts 257°
2026-04-24 02:01 -24.68782 -53.77203 34077 ft 435 kts 258°
2026-04-24 02:02 -24.70179 -53.83674 34075 ft 434 kts 258°
2026-04-24 02:02 -24.71571 -53.90136 34063 ft 434 kts 258°
2026-04-24 02:03 -24.73648 -53.99834 34073 ft 434 kts 258°
2026-04-24 02:03 -24.75024 -54.06301 34061 ft 434 kts 258°
2026-04-24 02:04 -24.76404 -54.12767 34070 ft 434 kts 258°
2026-04-24 02:04 -24.77787 -54.19229 34069 ft 434 kts 258°
2026-04-24 02:05 -24.79164 -54.25694 34059 ft 434 kts 258°
2026-04-24 02:05 -24.80533 -54.32162 34053 ft 434 kts 258°
2026-04-24 02:06 -24.81893 -54.38624 34042 ft 434 kts 258°
2026-04-24 02:06 -24.83242 -54.45096 34059 ft 434 kts 258°
2026-04-24 02:07 -24.84600 -54.51564 34059 ft 434 kts 258°
2026-04-24 02:07 -24.85970 -54.58025 34046 ft 433 kts 258°
2026-04-24 02:08 -24.87352 -54.64479 34047 ft 433 kts 258°
2026-04-24 02:08 -24.88727 -54.70941 34056 ft 433 kts 258°
2026-04-24 02:09 -24.90085 -54.77406 34062 ft 433 kts 258°
2026-04-24 02:09 -24.91424 -54.83826 34052 ft 432 kts 258°
2026-04-24 02:10 -24.92768 -54.90276 34052 ft 432 kts 258°
2026-04-24 02:10 -24.93959 -54.96759 34051 ft 431 kts 262°
2026-04-24 02:11 -24.94767 -55.03295 34062 ft 430 kts 264°
2026-04-24 02:11 -24.95492 -55.09835 34059 ft 430 kts 263°
2026-04-24 02:12 -24.96292 -55.16370 34063 ft 429 kts 263°
2026-04-24 02:12 -24.97129 -55.22876 34060 ft 429 kts 263°
2026-04-24 02:13 -24.97963 -55.29381 34065 ft 428 kts 263°
2026-04-24 02:13 -24.98778 -55.35845 34041 ft 428 kts 263°
2026-04-24 02:14 -24.99589 -55.42403 34034 ft 429 kts 263°
2026-04-24 02:14 -25.00379 -55.48858 34042 ft 422 kts 263°
2026-04-24 02:15 -25.00767 -55.52036 33809 ft 415 kts 263°
2026-04-24 02:15 -25.01157 -55.55186 33103 ft 414 kts 263°
2026-04-24 02:15 -25.01550 -55.58338 32270 ft 416 kts 263°
2026-04-24 02:15 -25.01945 -55.61505 31392 ft 419 kts 263°
2026-04-24 02:16 -25.02341 -55.64710 30500 ft 423 kts 263°
2026-04-24 02:16 -25.02740 -55.67941 29504 ft 428 kts 263°
2026-04-24 02:16 -25.03143 -55.71185 28744 ft 426 kts 264°
2026-04-24 02:16 -25.03541 -55.74406 28051 ft 422 kts 264°
2026-04-24 02:17 -25.03935 -55.77600 27384 ft 418 kts 264°
2026-04-24 02:17 -25.04325 -55.80758 26760 ft 415 kts 264°
2026-04-24 02:17 -25.04709 -55.83896 26138 ft 411 kts 264°
2026-04-24 02:17 -25.05087 -55.87012 25526 ft 408 kts 264°
2026-04-24 02:18 -25.05461 -55.90103 24923 ft 405 kts 264°
2026-04-24 02:18 -25.05832 -55.93169 24334 ft 403 kts 264°
2026-04-24 02:18 -25.06202 -55.96223 23751 ft 400 kts 264°
2026-04-24 02:18 -25.06570 -55.99256 23095 ft 398 kts 264°
2026-04-24 02:19 -25.06936 -56.02271 22454 ft 395 kts 264°
2026-04-24 02:19 -25.07300 -56.05261 21845 ft 392 kts 264°
2026-04-24 02:19 -25.07657 -56.08193 21270 ft 390 kts 264°
2026-04-24 02:19 -25.08017 -56.11147 20697 ft 387 kts 264°
2026-04-24 02:20 -25.08377 -56.14116 20139 ft 385 kts 264°
2026-04-24 02:20 -25.08722 -56.16995 19606 ft 382 kts 264°
2026-04-24 02:20 -25.09075 -56.19896 19219 ft 381 kts 263°
2026-04-24 02:20 -25.09430 -56.22801 18994 ft 382 kts 263°
2026-04-24 02:21 -25.09785 -56.25703 18771 ft 382 kts 263°
2026-04-24 02:21 -25.10137 -56.28609 18553 ft 381 kts 263°
2026-04-24 02:21 -25.10489 -56.31509 18325 ft 380 kts 263°
2026-04-24 02:21 -25.10837 -56.34400 18071 ft 379 kts 263°
2026-04-24 02:22 -25.11180 -56.37274 17810 ft 378 kts 264°
2026-04-24 02:22 -25.11521 -56.40148 17565 ft 377 kts 264°
2026-04-24 02:22 -25.11859 -56.43011 17297 ft 376 kts 264°
2026-04-24 02:22 -25.12194 -56.45863 17047 ft 375 kts 264°
2026-04-24 02:23 -25.12529 -56.48706 16803 ft 373 kts 264°
2026-04-24 02:23 -25.12864 -56.51553 16552 ft 373 kts 264°
2026-04-24 02:23 -25.13194 -56.54378 16306 ft 372 kts 264°
2026-04-24 02:23 -25.13523 -56.57203 16065 ft 371 kts 264°
2026-04-24 02:24 -25.13841 -56.59992 15827 ft 370 kts 266°
2026-04-24 02:24 -25.13842 -56.62806 15589 ft 367 kts 275°
2026-04-24 02:24 -25.13641 -56.65616 15350 ft 367 kts 275°
2026-04-24 02:24 -25.13444 -56.68421 15114 ft 366 kts 275°
2026-04-24 02:25 -25.13252 -56.71225 14881 ft 365 kts 275°
2026-04-24 02:25 -25.13064 -56.74009 14653 ft 364 kts 275°
2026-04-24 02:25 -25.12873 -56.76797 14423 ft 364 kts 275°
2026-04-24 02:25 -25.12680 -56.79573 14193 ft 359 kts 276°
2026-04-24 02:26 -25.12493 -56.82277 13960 ft 349 kts 276°
2026-04-24 02:26 -25.12312 -56.84885 13597 ft 332 kts 276°
2026-04-24 02:26 -25.12141 -56.87372 13211 ft 317 kts 276°
2026-04-24 02:26 -25.11976 -56.89745 12807 ft 305 kts 276°
2026-04-24 02:27 -25.11814 -56.92048 12289 ft 298 kts 276°
2026-04-24 02:27 -25.11652 -56.94312 11807 ft 291 kts 276°
2026-04-24 02:27 -25.11497 -56.96504 11403 ft 283 kts 276°
2026-04-24 02:27 -25.11346 -56.98642 10976 ft 276 kts 276°
2026-04-24 02:28 -25.11198 -57.00726 10556 ft 270 kts 276°
2026-04-24 02:28 -25.11103 -57.02082 10278 ft 266 kts 276°
2026-04-24 02:28 -25.10918 -57.04728 9962 ft 250 kts 277°
2026-04-24 02:28 -25.10827 -57.05998 9888 ft 253 kts 277°
2026-04-24 02:29 -25.10685 -57.07947 9764 ft 256 kts 277°
2026-04-24 02:29 -25.10540 -57.09911 9642 ft 256 kts 277°
2026-04-24 02:29 -25.10396 -57.11867 9502 ft 256 kts 277°
2026-04-24 02:29 -25.10254 -57.13817 9272 ft 253 kts 277°
2026-04-24 02:30 -25.10115 -57.15732 9036 ft 248 kts 277°
2026-04-24 02:30 -25.09978 -57.17630 8742 ft 247 kts 277°
2026-04-24 02:30 -25.09842 -57.19515 8406 ft 247 kts 277°
2026-04-24 02:30 -25.09703 -57.21425 7972 ft 252 kts 277°
2026-04-24 02:31 -25.09562 -57.23371 7532 ft 254 kts 277°
2026-04-24 02:31 -25.09424 -57.25303 7089 ft 251 kts 277°
2026-04-24 02:31 -25.09290 -57.27180 6848 ft 239 kts 277°
2026-04-24 02:31 -25.09163 -57.28955 6690 ft 225 kts 278°
2026-04-24 02:32 -25.09040 -57.30643 6455 ft 217 kts 278°
2026-04-24 02:32 -25.08921 -57.32287 6118 ft 214 kts 278°
2026-04-24 02:32 -25.08800 -57.33934 5695 ft 215 kts 277°
2026-04-24 02:32 -25.08618 -57.35552 5247 ft 210 kts 285°
2026-04-24 02:33 -25.08295 -57.37114 4798 ft 208 kts 285°
2026-04-24 02:33 -25.07991 -57.38625 4597 ft 193 kts 285°
2026-04-24 02:33 -25.07712 -57.40031 4368 ft 184 kts 285°
2026-04-24 02:33 -25.07433 -57.41422 3982 ft 186 kts 285°
2026-04-24 02:34 -25.07163 -57.42771 3880 ft 174 kts 284°
2026-04-24 02:34 -25.06905 -57.44054 3664 ft 172 kts 285°
2026-04-24 02:34 -25.06650 -57.45333 3472 ft 169 kts 283°
2026-04-24 02:34 -25.06716 -57.46612 3287 ft 169 kts 250°
2026-04-24 02:35 -25.07391 -57.47645 3113 ft 166 kts 216°
2026-04-24 02:35 -25.08429 -57.48143 2957 ft 163 kts 192°
2026-04-24 02:35 -25.09525 -57.48406 2758 ft 160 kts 191°
2026-04-24 02:35 -25.10611 -57.48667 2561 ft 159 kts 192°
2026-04-24 02:36 -25.11687 -57.48927 2356 ft 157 kts 192°
2026-04-24 02:36 -25.12743 -57.49183 2159 ft 154 kts 192°
2026-04-24 02:36 -25.13786 -57.49436 1959 ft 152 kts 191°
2026-04-24 02:36 -25.14814 -57.49686 1769 ft 151 kts 192°
2026-04-24 02:37 -25.15828 -57.49932 1573 ft 149 kts 192°
2026-04-24 02:37 -25.16841 -57.50177 1379 ft 148 kts 192°
2026-04-24 02:37 -25.17823 -57.50416 1193 ft 143 kts 192°
2026-04-24 02:37 -25.18790 -57.50647 1023 ft 141 kts 192°
2026-04-24 02:38 -25.19752 -57.50874 804 ft 139 kts 192°
2026-04-24 02:38 -25.20710 -57.51104 618 ft 142 kts 194°
2026-04-24 02:38 -25.21638 -57.51337 459 ft 138 kts 192°
2026-04-24 02:38 -25.22580 -57.51566 318 ft 135 kts 193°
2026-04-24 02:39 -25.23413 -57.51766 298 ft 90 kts 193°
2026-04-24 02:39 -25.23762 -57.51860 297 ft 34 kts 195°
2026-04-24 02:39 -25.23987 -57.51913 301 ft 32 kts 192°
2026-04-24 02:39 -25.24195 -57.51959 303 ft 14 kts 191°
2026-04-24 02:40 -25.24261 -57.51924 303 ft 12 kts 111°
2026-04-24 02:40 -25.24280 -57.51834 300 ft 12 kts 102°
2026-04-24 02:40 -25.24299 -57.51750 299 ft 11 kts 105°
2026-04-24 02:40 -25.24301 -57.51674 303 ft 9 kts 67°
2026-04-24 02:41 -25.24277 -57.51615 299 ft 8 kts 89°
2026-04-24 02:41 -25.24285 -57.51563 299 ft 6 kts 103°
2026-04-24 02:41 -25.24293 -57.51518 300 ft 5 kts 104°
2026-04-24 02:41 -25.24299 -57.51496 299 ft 0 kts 104°